• In Hungary
  • List of Countries
  • For 7 days
  • Water Temperature
  • Satellite Maps
  • Weather Map
  • News
  • Weather Widgets
  • user-avatar
    Login

    Hourly Weather Tulchin

    Today, 13 November, Tuesday

    Time Temperature Precipitation Wind Pressure Humidity
    00:00 0°C° 0 mm 4 mps 755 mmHg 61%
    01:00 -1°C° 0 mm 4 mps 755 mmHg 61%
    02:00 -1°C° 0 mm 4 mps 755 mmHg 61%
    03:00 -2°C° 0 mm 4 mps 755 mmHg 61%
    04:00 -2°C° 0 mm 4 mps 755 mmHg 61%
    05:00 -2°C° 0 mm 4 mps 755 mmHg 61%
    06:00 -3°C° 0 mm 4 mps 755 mmHg 61%
    07:00 -3°C° 0 mm 4 mps 755 mmHg 61%
    08:00 -5°C° 0 mm 5 mps 756 mmHg 59%
    09:00 -3°C° 0 mm 4 mps 755 mmHg 56%
    10:00 -2°C° 0 mm 4 mps 755 mmHg 52%
    11:00 -1°C° 0 mm 4 mps 755 mmHg 49%
    12:00 0°C° 0 mm 4 mps 755 mmHg 47%
    13:00 0°C° 0 mm 4 mps 754 mmHg 45%
    14:00 +1°C° 0 mm 4 mps 754 mmHg 46%
    15:00 +1°C° 0 mm 3 mps 754 mmHg 48%
    16:00 0°C° 0 mm 3 mps 754 mmHg 50%
    17:00 0°C° 0 mm 3 mps 753 mmHg 53%
    18:00 -2°C° 0 mm 4 mps 753 mmHg 54%
    19:00 -2°C° 0 mm 4 mps 753 mmHg 56%
    20:00 -2°C° 0 mm 4 mps 753 mmHg 57%
    21:00 -3°C° 0 mm 4 mps 752 mmHg 58%
    22:00 -3°C° 0 mm 4 mps 752 mmHg 59%
    23:00 -3°C° 0 mm 4 mps 752 mmHg 60%

    Tomorrow, 14 November, Wednesday

    Time Temperature Precipitation Wind Pressure Humidity
    00:00 -3°C° 0 mm 4 mps 751 mmHg 60%
    01:00 -4°C° 0 mm 4 mps 751 mmHg 60%
    02:00 -4°C° 0 mm 4 mps 750 mmHg 60%
    03:00 -4°C° 0 mm 4 mps 750 mmHg 59%
    04:00 -4°C° 0 mm 4 mps 749 mmHg 59%
    05:00 -4°C° 0 mm 4 mps 749 mmHg 58%
    06:00 -4°C° 0.3 mm 4 mps 749 mmHg 64%
    07:00 -4°C° 0.3 mm 4 mps 749 mmHg 70%
    08:00 -4°C° 0.3 mm 4 mps 749 mmHg 75%
    09:00 -3°C° 1 mm 4 mps 748 mmHg 81%
    10:00 -3°C° 1 mm 4 mps 748 mmHg 86%
    11:00 -3°C° 1 mm 4 mps 748 mmHg 91%
    12:00 -2°C° 0.3 mm 4 mps 748 mmHg 91%
    13:00 -1°C° 0.3 mm 3 mps 747 mmHg 91%
    14:00 -1°C° 0.3 mm 3 mps 747 mmHg 91%
    15:00 0°C° 0 mm 3 mps 747 mmHg 92%
    16:00 0°C° 0 mm 3 mps 747 mmHg 93%
    17:00 +1°C° 0 mm 2 mps 747 mmHg 94%
    18:00 +2°C° 0 mm 2 mps 747 mmHg 94%
    19:00 +2°C° 0 mm 2 mps 747 mmHg 95%
    20:00 +2°C° 0 mm 2 mps 746 mmHg 95%
    21:00 +3°C° 0 mm 2 mps 746 mmHg 95%
    22:00 +3°C° 0 mm 2 mps 746 mmHg 95%
    23:00 +3°C° 0 mm 2 mps 746 mmHg 95%

    Day after tomorrow, 15 November, Thursday

    Time Temperature Precipitation Wind Pressure Humidity
    00:00 +3°C° 0.1 mm 2 mps 746 mmHg 96%
    01:00 +3°C° 0.1 mm 2 mps 746 mmHg 96%
    02:00 +3°C° 0.1 mm 1 mps 746 mmHg 96%
    03:00 +4°C° 0.2 mm 1 mps 746 mmHg 96%
    04:00 +4°C° 0.2 mm 1 mps 746 mmHg 97%
    05:00 +4°C° 0.2 mm 1 mps 746 mmHg 97%
    06:00 +4°C° 0.2 mm 1 mps 746 mmHg 97%
    07:00 +4°C° 0.2 mm 1 mps 746 mmHg 98%
    08:00 +4°C° 0.2 mm 1 mps 746 mmHg 98%
    09:00 +4°C° 0.2 mm 2 mps 747 mmHg 97%
    10:00 +4°C° 0.2 mm 2 mps 747 mmHg 95%
    11:00 +4°C° 0.2 mm 2 mps 748 mmHg 94%
    12:00 +4°C° 0 mm 2 mps 748 mmHg 92%
    13:00 +4°C° 0 mm 2 mps 748 mmHg 90%
    14:00 +3°C° 0 mm 3 mps 748 mmHg 88%
    15:00 +3°C° 0 mm 3 mps 749 mmHg 89%
    16:00 +3°C° 0 mm 3 mps 749 mmHg 89%
    17:00 +2°C° 0 mm 3 mps 750 mmHg 90%
    18:00 +2°C° 0 mm 3 mps 750 mmHg 89%
    19:00 +2°C° 0 mm 3 mps 751 mmHg 89%
    20:00 +1°C° 0 mm 4 mps 751 mmHg 89%
    21:00 +1°C° 0 mm 4 mps 752 mmHg 88%
    22:00 +2°C° 0 mm 3 mps 752 mmHg 87%
    23:00 +2°C° 0 mm 3 mps 752 mmHg 85%

    16 November, Friday

    Time Temperature Precipitation Wind Pressure Humidity
    00:00 +1°C° 0 mm 3 mps 752 mmHg 86%
    01:00 +1°C° 0 mm 3 mps 753 mmHg 86%
    02:00 0°C° 0 mm 3 mps 753 mmHg 86%
    03:00 0°C° 0 mm 3 mps 753 mmHg 87%
    04:00 -2°C° 0 mm 4 mps 753 mmHg 89%
    05:00 -2°C° 0 mm 4 mps 753 mmHg 90%
    06:00 -2°C° 0 mm 4 mps 754 mmHg 89%
    07:00 -3°C° 0 mm 4 mps 754 mmHg 88%
    08:00 -3°C° 0 mm 4 mps 754 mmHg 86%
    09:00 -2°C° 0 mm 4 mps 755 mmHg 79%
    10:00 -1°C° 0 mm 4 mps 755 mmHg 71%
    11:00 0°C° 0 mm 5 mps 755 mmHg 63%
    12:00 +1°C° 0 mm 5 mps 755 mmHg 61%
    13:00 +1°C° 0 mm 5 mps 755 mmHg 59%
    14:00 +1°C° 0 mm 5 mps 754 mmHg 57%
    15:00 +1°C° 0 mm 5 mps 755 mmHg 61%
    16:00 0°C° 0 mm 4 mps 755 mmHg 66%
    17:00 -1°C° 0 mm 4 mps 755 mmHg 70%
    18:00 -2°C° 0 mm 4 mps 755 mmHg 72%
    19:00 -2°C° 0 mm 5 mps 755 mmHg 73%
    20:00 -4°C° 0 mm 5 mps 755 mmHg 75%
    21:00 -3°C° 0 mm 4 mps 755 mmHg 74%
    22:00 -3°C° 0 mm 4 mps 755 mmHg 74%
    23:00 -3°C° 0 mm 4 mps 755 mmHg 73%

    17 November, Saturday

    Time Temperature Precipitation Wind Pressure Humidity
    00:00 -4°C° 0 mm 4 mps 755 mmHg 71%
    01:00 -4°C° 0 mm 4 mps 755 mmHg 69%
    02:00 -4°C° 0 mm 4 mps 755 mmHg 68%
    03:00 -4°C° 0 mm 4 mps 755 mmHg 66%
    04:00 -4°C° 0 mm 4 mps 755 mmHg 64%
    05:00 -4°C° 0 mm 4 mps 755 mmHg 63%
    06:00 -4°C° 0 mm 4 mps 755 mmHg 62%
    07:00 -4°C° 0 mm 4 mps 755 mmHg 61%
    08:00 -4°C° 0 mm 4 mps 755 mmHg 60%
    09:00 -3°C° 0 mm 4 mps 755 mmHg 56%
    10:00 -2°C° 0 mm 4 mps 755 mmHg 52%
    11:00 -1°C° 0 mm 5 mps 755 mmHg 48%
    12:00 0°C° 0 mm 4 mps 755 mmHg 48%
    13:00 0°C° 0 mm 4 mps 755 mmHg 47%
    14:00 +1°C° 0 mm 4 mps 754 mmHg 46%
    15:00 0°C° 0 mm 4 mps 754 mmHg 51%
    16:00 0°C° 0 mm 3 mps 754 mmHg 56%
    17:00 -1°C° 0 mm 3 mps 754 mmHg 62%
    18:00 -2°C° 0 mm 3 mps 754 mmHg 63%
    19:00 -2°C° 0 mm 3 mps 754 mmHg 64%
    20:00 -4°C° 0 mm 3 mps 754 mmHg 64%
    21:00 -4°C° 0 mm 3 mps 753 mmHg 64%
    22:00 -3°C° 0 mm 2 mps 753 mmHg 63%
    23:00 -3°C° 0 mm 2 mps 753 mmHg 62%

    18 November, Sunday

    Time Temperature Precipitation Wind Pressure Humidity
    00:00 -3°C° 0 mm 2 mps 753 mmHg 61%
    01:00 -3°C° 0 mm 2 mps 752 mmHg 59%
    02:00 -3°C° 0 mm 2 mps 752 mmHg 57%
    03:00 -4°C° 0 mm 2 mps 751 mmHg 56%
    04:00 -4°C° 0 mm 2 mps 751 mmHg 55%
    05:00 -4°C° 0 mm 2 mps 750 mmHg 53%
    06:00 -4°C° 0 mm 2 mps 749 mmHg 52%
    07:00 -4°C° 0 mm 3 mps 749 mmHg 51%
    08:00 -4°C° 0 mm 3 mps 748 mmHg 51%
    09:00 -2°C° 0 mm 3 mps 748 mmHg 48%
    10:00 -1°C° 0 mm 3 mps 747 mmHg 45%
    11:00 0°C° 0 mm 4 mps 746 mmHg 42%
    12:00 -1°C° 0.3 mm 4 mps 746 mmHg 52%
    13:00 -1°C° 0.3 mm 4 mps 745 mmHg 61%
    14:00 -1°C° 0.3 mm 4 mps 744 mmHg 71%
    15:00 -2°C° 0.3 mm 4 mps 744 mmHg 77%
    16:00 -2°C° 0.3 mm 4 mps 743 mmHg 83%
    17:00 -2°C° 0.3 mm 4 mps 743 mmHg 89%
    18:00 -1°C° 0.2 mm 3 mps 742 mmHg 91%
    19:00 -1°C° 0.2 mm 3 mps 742 mmHg 92%
    20:00 -1°C° 0.2 mm 2 mps 741 mmHg 94%
    21:00 -1°C° 0.1 mm 2 mps 741 mmHg 94%
    22:00 -1°C° 0.1 mm 2 mps 741 mmHg 95%
    23:00 -1°C° 0.1 mm 2 mps 741 mmHg 96%
    Show more